Flag for United Arab Emirates Weather past 2 weeks in Dubai, Dubai, United Arab Emirates

Now
88 °F

Passing clouds.


Feels Like: 93 °F
Forecast: 83 / 92 °F
Wind: 5 mph from Southeast

Location: Dubai International Airport

Current Time: Oct 25, 2014 at 10:29:31 AM

Latest Report: Oct 25, 2014 at 10:00 AM


Visibility: N/A

Pressure: 29.89 "Hg

Humidity: 55%

Dew point: 70 °F

Location of DubaiLocation

Historic Weather in Dubai — Graph

°F

Dubai temperature yesterday

Maximum temperature yesterday: 91 °F (at 1:00 PM)
Minimum temperature yesterday: 77 °F (at 6:00 AM)
Average temperature yesterday: 84 °F

Past Weeks' High & Low Weather Summary

 TemperatureHumidityPressure
High104 °F (Oct 14, 2:00 PM)84% (Oct 12, 5:00 AM)30.01 "Hg (Oct 12, 5:00 AM)
Low77 °F (Oct 24, 6:00 AM)9% (Oct 14, 2:00 PM)29.77 "Hg (Oct 13, 3:00 PM)
Average89 °F51%29.88 "Hg
* Reported Oct 10 9:00 AM — Oct 25 9:00 AM, Dubai, Weather by CustomWeather, © 2014

Note: Actual official high and low records may vary slightly from our data, if they occured in-between our weather recording intervals... More about our weather records

Advertising

Dubai weather history for previous 24 hours

 ConditionsComfort  
Time TempWeatherWind HumidityBarometerVisibility
9:00 AM
Oct 25
86 °FPassing clouds.5 mph59%29.89 "HgN/A
8:00 AM81 °FSunny.5 mph70%29.89 "Hg10 mi
7:00 AM79 °FPassing clouds.5 mph74%29.89 "HgN/A
6:00 AM79 °FClear.5 mph74%29.86 "Hg10 mi
5:00 AM79 °FPassing clouds.5 mph74%29.86 "HgN/A
4:00 AM81 °FClear.5 mph70%29.86 "Hg10 mi
3:00 AM81 °FClear.5 mph70%29.86 "Hg10 mi
2:00 AM82 °FClear.6 mph66%29.86 "Hg10 mi
1:00 AM82 °FClear.5 mph66%29.86 "Hg10 mi
12:00 AM84 °FClear.2 mph66%29.86 "Hg10 mi
11:00 PM
Oct 24
84 °FPassing clouds.5 mph62%29.89 "HgN/A
10:00 PM86 °FPassing clouds.6 mph59%29.89 "HgN/A
9:00 PM86 °FPassing clouds.6 mph59%29.86 "HgN/A
8:00 PM86 °FPassing clouds.7 mph59%29.86 "HgN/A
7:00 PM86 °FPassing clouds.9 mph59%29.83 "HgN/A
6:00 PM86 °FPassing clouds.12 mph55%29.83 "HgN/A
5:00 PM88 °FPassing clouds.14 mph52%29.83 "HgN/A
4:00 PM88 °FPassing clouds.13 mph49%29.83 "HgN/A
3:00 PM90 °FPassing clouds.14 mph46%29.83 "HgN/A
2:00 PM90 °FPassing clouds.12 mph43%29.83 "HgN/A
1:00 PM91 °FPassing clouds.3 mph34%29.86 "HgN/A
12:00 PM90 °FSunny.2 mph36%29.89 "Hg10 mi
11:00 AM88 °FSunny.5 mph40%29.92 "Hg10 mi
10:00 AM84 °FPassing clouds.5 mph51%29.95 "HgN/A
Weather by CustomWeather, © 2014

See weather overviewHow to use our weather pages